This is the latest recevied weather packets stored in our database for station/object DG1UDO-13. If no packets are shown the sender has not sent any weather packets the latest 10 day(s).
| Time | Temp. | Humidity | Pressure | Rain* | Wind** | Luminosity | Snow |
|---|---|---|---|---|---|---|---|
| 1777239301 | 5° C | 90% | 1026 hPa | - | - | - | - |
| 1777237501 | 5.56° C | 87% | 1026.1 hPa | - | - | - | - |
| 1777235701 | 6.11° C | 85% | 1026 hPa | - | - | - | - |
| 1777233900 | 6.11° C | 84% | 1026 hPa | - | - | - | - |
| 1777232101 | 7.22° C | 80% | 1026 hPa | - | - | - | - |
| 1777230301 | 8.33° C | 76% | 1025.6 hPa | - | - | - | - |
| 1777228501 | 9.44° C | 71% | 1025.5 hPa | - | - | - | - |
| 1777226701 | 10° C | 68% | 1025.7 hPa | - | - | - | - |
| 1777224901 | 11.11° C | 65% | 1025.5 hPa | - | - | - | - |
| 1777223101 | 11.11° C | 65% | 1025.8 hPa | - | - | - | - |
| 1777221301 | 12.22° C | 64% | 1025.7 hPa | - | - | - | - |
| 1777219501 | 12.22° C | 65% | 1025.8 hPa | - | - | - | - |
| 1777217701 | 13.33° C | 60% | 1025.6 hPa | - | - | - | - |
| 1777215901 | 12.78° C | 63% | 1025.6 hPa | - | - | - | - |
| 1777214101 | 13.89° C | 59% | 1025.8 hPa | - | - | - | - |
| 1777212301 | 13.33° C | 44% | 1025.7 hPa | - | - | - | - |
| 1777210501 | 13.89° C | 42% | 1026 hPa | - | - | - | - |
| 1777208700 | 13.33° C | 43% | 1026.2 hPa | - | - | - | - |
| 1777206901 | 14.44° C | 40% | 1026.4 hPa | - | - | - | - |
| 1777205101 | 13.33° C | 46% | 1026.3 hPa | - | - | - | - |
| 1777203301 | 12.78° C | 43% | 1026.7 hPa | - | - | - | - |
| 1777201501 | 11.67° C | 43% | 1026.7 hPa | - | - | - | - |
| 1777199701 | 11.67° C | 38% | 1026.9 hPa | - | - | - | - |
| 1777197901 | 11.67° C | 54% | 1026.7 hPa | - | - | - | - |
| 1777196101 | 10.56° C | 60% | 1026.9 hPa | - | - | - | - |
* Rain since midnight (hover to see other rain measurements)
** Current wind speed in m/s (hover to see current wind gust speed)